Nucla Hopkins Field Airport, CO

9:06 AM MDT on June 24, 2017 (GMT -0600)
Nucla Hopkins Field Airport

Weather History for KAIB - March, 2014

Change the Weather History Date:

Monday, March 24, 2014

  Actual Average (KTEX) Record (KTEX)
Temperature  
Mean Temperature 44 °F -  
Max Temperature 59 °F 41 °F 57 °F (1998)
Min Temperature 28 °F 22 °F 3 °F (2013)
Degree Days  
Heating Degree Days 22    
Moisture  
Dew Point 8 °F    
Average Humidity 26    
Maximum Humidity 47    
Minimum Humidity 11    
Precipitation  
Precipitation 0.00 in - - ()
Sea Level Pressure  
Sea Level Pressure 30.24 in    
Wind  
Wind Speed 8 mph (NE)    
Max Wind Speed 15 mph    
Max Gust Speed 20 mph    
Visibility 10 miles    
Events      
Averages and records for this station are not official NWS values.
T = Trace of Precipitation, MM = Missing Value Source: NWS Daily Summary

Daily Weather History Graph

Daily Weather History Graph

Search for Another Location

Airport or City:

Trip Planner

Search our weather history database for the weather conditions in past years. The results will help you decide how hot, cold, wet, or windy it might be!

Date:

Astronomy

Mar. 24, 2014 Rise Set
Actual Time 7:11 AM MDT 7:30 PM MDT
Civil Twilight 6:45 AM MDT 7:56 PM MDT
Nautical Twilight 6:14 AM MDT 8:27 PM MDT
Astronomical Twilight 5:42 AM MDT 8:59 PM MDT
Moon 2:39 AM MDT 1:03 PM MDT
Length of Visible Light 13h 11m
Length of Day
12h 18m
Last Quarter, 42% of the Moon is Illuminated
Mar 24
Last Quarter
Mar 30
New
Apr 7
First Quarter
Apr 15
Full
Apr 22
Last Quarter

Hourly Weather History & Observations

Time (MDT) Temp. Windchill Dew Point Humidity Pressure Visibility Wind Dir Wind Speed Gust Speed Precip Events Conditions
12:15 AM 35.6 °F 28.0 °F 8.6 °F 33% 30.21 in 10.0 mi East 10.4 mph - N/A   Clear
12:35 AM 35.6 °F 31.7 °F 8.6 °F 33% 30.21 in 10.0 mi East 4.6 mph - N/A   Clear
12:55 AM 33.8 °F 27.0 °F 8.6 °F 35% 30.21 in 10.0 mi ESE 8.1 mph - N/A   Clear
1:15 AM 33.8 °F 25.3 °F 8.6 °F 35% 30.22 in 10.0 mi ESE 11.5 mph - N/A   Clear
1:55 AM 32.0 °F 24.2 °F 8.6 °F 38% 30.23 in 10.0 mi ESE 9.2 mph - N/A   Clear
2:15 AM 32.0 °F 23.0 °F 10.4 °F 41% 30.23 in 10.0 mi ESE 11.5 mph - N/A   Clear
2:35 AM 32.0 °F 22.5 °F 8.6 °F 38% 30.23 in 10.0 mi East 12.7 mph - N/A   Clear
2:55 AM 32.0 °F 23.0 °F 8.6 °F 38% 30.23 in 10.0 mi East 11.5 mph - N/A   Clear
3:15 AM 32.0 °F 24.2 °F 8.6 °F 38% 30.22 in 10.0 mi East 9.2 mph - N/A   Clear
3:35 AM 32.0 °F 24.8 °F 10.4 °F 41% 30.22 in 10.0 mi East 8.1 mph - N/A   Clear
3:55 AM 32.0 °F 24.8 °F 10.4 °F 41% 30.22 in 10.0 mi East 8.1 mph - N/A   Clear
4:15 AM 32.0 °F 24.2 °F 10.4 °F 41% 30.22 in 10.0 mi East 9.2 mph - N/A   Clear
4:35 AM 30.2 °F 23.4 °F 10.4 °F 44% 30.22 in 10.0 mi ESE 6.9 mph - N/A   Clear
4:55 AM 30.2 °F 22.6 °F 10.4 °F 44% 30.24 in 10.0 mi ESE 8.1 mph - N/A   Clear
5:15 AM 32.0 °F 24.2 °F 10.4 °F 41% 30.24 in 10.0 mi ESE 9.2 mph - N/A   Clear
5:35 AM 30.2 °F 23.4 °F 10.4 °F 44% 30.24 in 10.0 mi ESE 6.9 mph - N/A   Clear
5:55 AM 30.2 °F 23.4 °F 10.4 °F 44% 30.25 in 10.0 mi ESE 6.9 mph - N/A   Clear
6:15 AM 30.2 °F 25.4 °F 10.4 °F 44% 30.25 in 10.0 mi ESE 4.6 mph - N/A   Clear
6:35 AM 30.2 °F 21.3 °F 10.4 °F 44% 30.25 in 10.0 mi ESE 10.4 mph - N/A   Clear
6:55 AM 30.2 °F 20.8 °F 8.6 °F 40% 30.25 in 10.0 mi East 11.5 mph - N/A   Clear
7:15 AM 30.2 °F - 8.6 °F 40% 30.27 in 10.0 mi Calm Calm - N/A   Clear
7:35 AM 28.4 °F 22.2 °F 10.4 °F 47% 30.27 in 10.0 mi ESE 5.8 mph - N/A   Clear
7:55 AM 30.2 °F 24.3 °F 10.4 °F 44% 30.28 in 10.0 mi ESE 5.8 mph - N/A   Clear
8:15 AM 32.0 °F 26.4 °F 10.4 °F 41% 30.28 in 10.0 mi ESE 5.8 mph - N/A   Clear
8:35 AM 33.8 °F 29.6 °F 10.4 °F 38% 30.28 in 10.0 mi SE 4.6 mph - N/A   Clear
8:55 AM 35.6 °F - 10.4 °F 35% 30.29 in 10.0 mi Calm Calm - N/A   Clear
9:15 AM 37.4 °F - 10.4 °F 33% 30.29 in 10.0 mi Calm Calm - N/A   Clear
9:35 AM 39.2 °F - 10.4 °F 31% 30.29 in 10.0 mi Calm Calm - N/A   Clear
9:55 AM 41.0 °F - 14.0 °F 33% 30.29 in 10.0 mi Calm Calm - N/A   Clear
10:15 AM 42.8 °F - 10.4 °F 27% 30.29 in 10.0 mi Calm Calm - N/A   Clear
10:35 AM 44.6 °F - 10.4 °F 25% 30.29 in 10.0 mi Calm Calm - N/A   Clear
10:55 AM 48.2 °F - 12.2 °F 24% 30.29 in 10.0 mi Calm Calm - N/A   Clear
11:15 AM 50.0 °F - 5.0 °F 16% 30.29 in 10.0 mi Calm Calm - N/A   Clear
11:35 AM 51.8 °F - 5.0 °F 15% 30.29 in 10.0 mi West 3.5 mph - N/A   Clear
11:55 AM 53.6 °F - 6.8 °F 15% 30.28 in 10.0 mi NW 11.5 mph 16.1 mph N/A   Clear
12:15 PM 53.6 °F - 6.8 °F 15% 30.28 in 10.0 mi NW 12.7 mph - N/A   Clear
12:35 PM 53.6 °F - 5.0 °F 14% 30.28 in 10.0 mi West 8.1 mph - N/A   Clear
12:55 PM 55.4 °F - 5.0 °F 13% 30.27 in 10.0 mi West 15.0 mph - N/A   Clear
1:15 PM 55.4 °F - 5.0 °F 13% 30.26 in 10.0 mi West 12.7 mph 19.6 mph N/A   Clear
1:35 PM 55.4 °F - 5.0 °F 13% 30.26 in 10.0 mi WNW 11.5 mph - N/A   Clear
1:55 PM 55.4 °F - 5.0 °F 13% 30.25 in 10.0 mi West 4.6 mph - N/A   Clear
2:15 PM 55.4 °F - 5.0 °F 13% 30.25 in 10.0 mi WNW 5.8 mph - N/A   Clear
2:35 PM 57.2 °F - 5.0 °F 12% 30.23 in 10.0 mi WNW 9.2 mph - N/A   Clear
2:55 PM 57.2 °F - 3.2 °F 11% 30.23 in 10.0 mi WNW 3.5 mph - N/A   Clear
3:15 PM 57.2 °F - 3.2 °F 11% 30.22 in 10.0 mi NW 8.1 mph - N/A   Clear
3:35 PM 59.0 °F - 5.0 °F 12% 30.22 in 10.0 mi West 5.8 mph 10.4 mph N/A   Clear
3:55 PM 59.0 °F - 5.0 °F 12% 30.21 in 10.0 mi West 13.8 mph 17.3 mph N/A   Clear
4:15 PM 59.0 °F - 5.0 °F 12% 30.21 in 10.0 mi West 6.9 mph - N/A   Clear
4:35 PM 59.0 °F - 5.0 °F 12% 30.21 in 10.0 mi West 9.2 mph - N/A   Clear
4:55 PM 59.0 °F - 5.0 °F 12% 30.20 in 10.0 mi West 6.9 mph - N/A   Clear
5:15 PM 59.0 °F - 6.8 °F 13% 30.19 in 10.0 mi WNW 11.5 mph - N/A   Clear
5:35 PM 59.0 °F - 5.0 °F 12% 30.19 in 10.0 mi WNW 9.2 mph 16.1 mph N/A   Clear
5:55 PM 59.0 °F - 5.0 °F 12% 30.19 in 10.0 mi NW 8.1 mph - N/A   Clear
6:15 PM 59.0 °F - 5.0 °F 12% 30.19 in 10.0 mi WNW 12.7 mph 16.1 mph N/A   Clear
6:35 PM 57.2 °F - 5.0 °F 12% 30.20 in 10.0 mi NW 9.2 mph - N/A   Clear
6:55 PM 55.4 °F - 5.0 °F 13% 30.20 in 10.0 mi WNW 6.9 mph - N/A   Clear
7:15 PM 53.6 °F - 5.0 °F 14% 30.20 in 10.0 mi NW 8.1 mph - N/A   Clear
7:35 PM 51.8 °F - 5.0 °F 15% 30.20 in 10.0 mi NW 6.9 mph - N/A   Clear
7:55 PM 50.0 °F - 5.0 °F 16% 30.20 in 10.0 mi NNW 5.8 mph - N/A   Clear
8:15 PM 48.2 °F - 5.0 °F 17% 30.21 in 10.0 mi WNW 6.9 mph - N/A   Clear
8:35 PM 46.4 °F 45.2 °F 5.0 °F 18% 30.22 in 10.0 mi West 3.5 mph - N/A   Clear
8:55 PM 50.0 °F - 5.0 °F 16% 30.23 in 10.0 mi West 4.6 mph - N/A   Clear
9:15 PM 48.2 °F - 5.0 °F 17% 30.23 in 10.0 mi Calm Calm - N/A   Clear
9:35 PM 46.4 °F - 5.0 °F 18% 30.23 in 10.0 mi Calm Calm - N/A   Clear
9:55 PM 42.8 °F 41.1 °F 6.8 °F 23% 30.24 in 10.0 mi ENE 3.5 mph - N/A   Clear
10:15 PM 41.0 °F 35.2 °F 8.6 °F 26% 30.25 in 10.0 mi East 9.2 mph - N/A   Clear
10:35 PM 41.0 °F 35.2 °F 8.6 °F 26% 30.25 in 10.0 mi East 9.2 mph - N/A   Clear
10:55 PM 39.2 °F 32.5 °F 10.4 °F 31% 30.25 in 10.0 mi East 10.4 mph - N/A   Clear
11:15 PM 37.4 °F 30.3 °F 10.4 °F 33% 30.25 in 10.0 mi East 10.4 mph - N/A   Clear
11:55 PM 37.4 °F 30.8 °F 10.4 °F 33% 30.25 in 10.0 mi ESE 9.2 mph - N/A   Clear